Location: Newark
(35.6799°N, 139.7636°E)
Time: 15:35:14
(UTC+00:00)

Vanguard 1 Rocket - Pass Details

Date: 15 December 2019
Orbit: 650 x 4226 km, 34.3° (Epoch: 17 January)

Event Time Altitude Azimuth Distance (km) Brightness Sun altitude
Rises 08:18:34 0° 220° (SW) 8,391 13.5 -10.0°
Reaches altitude 10° 08:24:45 10° 216° (SW) 7,424 12.9 -11.2°
Maximum altitude 08:48:29 49° 150° (SSE) 4,178 10.6 -15.7°
Enters shadow 09:00:48 20° 89° (E) 4,604 10.4 -18.1°
